www.pogodaiklimat.ru

ПОГОДА в Оуэнсборо, KY

  • Прогноз погоды в Оуэнсборо
  • Монитор погоды в Оуэнсборо
  • Климат в Оуэнсборо

АРХИВ ПОГОДЫ в Оуэнсборо

Время (UTC), дата Ветер
(напр.,м/с)
 
Видим.   Явления Облачность Т
(С)
Тd
(С)
f
(%)
Тe
(С)
Тes
(С)
Комфортность

P
(гПа)

Po
(гПа)
Тmin
(С)
Tmax
(С)
R
(мм)
SD
(см)
07:03 25.03 ЮВ  8 км  дождь, дымка  10/8 330 м
[средняя] 
+13.0  +12.0  94  +11  +11      998.9         
07:17 25.03 ЮВ  11 км  дождь  10/5 480 м
[средняя] 
+12.0  +12.0  100  +10  +10      998.3         
07:56 25.03 ЮВ  16 км    8/0 2400 м
[средняя] 
+11.7  +11.1  96  +10  +10    1013.7  997.6      4.6   
08:56 25.03 Ю  16 км    ясно  +10.6  +10.0  96  +9  +9    1013.5  997.6         
09:56 25.03   8 км  дымка  8/8 1410 м  +10.0  +10.0  100  +9  +9    1014.2  997.9         
10:56 25.03   5 км  дымка  8/8 1170 м  +9.4  +8.9  97  +8  +8    1014.7  998.6  +9.4  +13.3  4.8   
11:01 25.03   800 м  туман  8/8 1170 м  +9.0  +9.0  100  +8  +8      998.6         
11:12 25.03 С  400 м  туман  8/8 150 м  +9.0  +9.0  100  +6  +6      998.9         
11:14 25.03 С  800 м  туман  8/8 150 м  +9.0  +9.0  100  +6  +6      998.9         
11:21 25.03 СЗ  2 км  дымка  8/8 150 м  +9.0  +9.0  100  +7  +7      998.9         
11:56 25.03 С  5 км  дымка  10/10 150 м  +11.1  +10.6  97  +9  +9    1015.8  999.6         
12:56 25.03 С  11 км    10/10 210 м  +11.7  +10.6  93  +9  +9    1015.8  999.6         
13:56 25.03 СЗ  11 км    10/10 210 м  +11.7  +10.6  93  +8  +8    1016.5  1000.3         
14:56 25.03 С  13 км    10/10 210 м  +11.1  +10.0  93  +8  +8    1017.4  1001.3         
15:56 25.03 С  16 км    10/10 210 м  +11.7  +10.0  89  +9  +9    1017.7  1001.3         
16:56 25.03 С  16 км    10/10 330 м  +12.2  +9.4  83  +10  +10    1018.1  1001.9  +8.9  +12.2     
17:56 25.03 С  16 км    10/10 390 м  +11.7  +8.9  83  +9  +9    1018.7  1002.6         
18:56 25.03 С  16 км    10/10 390 м  +11.1  +8.3  83  +8  +8    1019.0  1002.6         
19:56 25.03 С  6
{9} 
16 км    10/10 480 м  +11.1  +7.8  80  +8  +8    1019.7  1003.3         
20:56 25.03 С  6
{8} 
16 км    10/10 540 м  +10.6  +6.7  77  +7  +7    1020.5  1004.3         
21:56 25.03 С  6
{8} 
16 км    10/10 570 м  +10.6  +6.1  74  +7  +7    1021.6  1005.3         
22:56 25.03 С  16 км    10/10 600 м  +9.4  +5.0  74  +6  +6    1022.5  1006.0  +9.4  +12.2     
23:56 25.03 С  16 км    10/10 960 м  +9.4  +5.6  77  +7  +7    1023.0  1006.6         
00:25 26.03 С  16 км    10/10 840 м  +9.0  +5.0  76  +6  +6      1007.0         
00:56 26.03 СВ  16 км    10/10 840 м  +9.4  +5.0  74  +7  +7    1024.0  1007.6         
01:12 26.03 СВ  16 км    5/5 990 м  +9.0  +4.0  71  +5  +5      1008.0         
01:56 26.03 СВ  16 км    ясно  +7.8  +3.3  73  +5  +5    1025.3  1008.6         
02:56 26.03 С  16 км    ясно  +7.2  +3.3  76  +6  +6    1025.6  1009.0         
03:56 26.03 С  16 км    ясно  +6.7  +2.8  76  +4  +4    1025.9  1009.3         
04:56 26.03 С  16 км    ясно  +6.1  -0.6  62  +4  +4    1026.5  1010.0  +6.1  +9.4     
05:56 26.03 СВ  16 км    ясно  +5.6  -2.2  57  +2  +2    1026.4  1010.0         
06:56 26.03 СВ  16 км    ясно  +4.4  -3.9  55  +1  +1    1026.4  1010.0         
07:56 26.03 СВ  16 км    ясно  +3.9  -5.0  52  0  0    1026.8  1010.3         
08:56 26.03 СВ  16 км    ясно  +3.3  -5.0  54  -1  -1    1027.5  1011.0         
09:56 26.03 СВ  16 км    ясно  +2.8  -5.6  54  -0  -0    1028.4  1012.0         
10:56 26.03 СВ  16 км    ясно  +2.2  -6.1  54  -2  -2    1028.8  1012.3  +1.7  +6.1     
11:56 26.03 СВ  16 км    ясно  +2.8  -6.7  50  -1  -1    1029.9  1013.3         
12:56 26.03 СВ  16 км    ясно  +3.9  -7.8  42  -0  0    1030.4  1014.0         
13:56 26.03 СВ  16 км    ясно  +5.6  -7.2  39  +1  +3    1030.7  1014.0         
14:56 26.03 СВ  16 км    ясно  +7.2  -7.2  35  +3  +6    1030.6  1014.0         
15:56 26.03 СВ  4
{8} 
16 км    ясно  +8.3  -7.8  31  +5  +11    1030.5  1014.0         
16:56 26.03 СВ  4
{8} 
16 км    ясно  +8.9  -8.3  29  +7  +16  опасность
простуды 
1030.1  1013.6  +1.7  +9.4     
17:56 26.03 С  16 км    ясно  +10.6  -7.8  27  +8  +14    1029.6  1013.0         
18:56 26.03 С  16 км    ясно  +11.1  -7.2  27  +9  +14    1029.0  1012.6         
19:56 26.03 СВ  16 км    ясно  +11.1  -7.2  27  +9  +16    1028.8  1012.3         
20:56 26.03 С  16 км    ясно  +11.7  -7.8  25  +10  +13    1028.6  1012.0         
21:56 26.03 С  16 км    ясно  +11.1  -7.2  27  +10  +12    1028.8  1012.3         
22:56 26.03 С  16 км    ясно  +10.0  -7.8  28  +8  +9    1028.7  1012.3  +8.9  +11.7     

 

Местоположение метеостанции Owensboro-Daviess County Airport: широта 37.7400 долгота -87.1667 высота над уровнем моря 124 м.

В архиве по умолчанию представлена погода в Оуэнсборо за последние 1-2 суток. Обновление информации о фактической погоде в базе происходит ежечасно! Архивные данные за месяц целиком и за предыдущие месяцы Вы можете получить, выбрав интересующий диапазон дат из раскрывающегося списка и нажав кнопку "Ввод!".

Внимание! Архив погоды МЕТАР в базе сайта хранится не более 60 дней. Нет смысла пытаться выбрать более раннюю дату.

Внимание! Время в таблицах - всемирное. Для получения местного времени необходимо прибавить поправку, которая в Оуэнсборо равна -6 ч.

Ветер - указаны скорость ветра в м/с и направление, откуда дует ветер: С - северный, СВ - северо-восточный, В - восточный, ЮВ - юго-восточный, Ю - южный, ЮЗ - юго-западный, З - западный, СЗ - северо-западный.
Видимость - горизонтальная дальность видимости в метрах или километрах. При видимости от 1 до 10 км при отсутствии осадков обычно наблюдается дымка, при ухудшении видимости до 1 км и менее - туман. В сухую погоду видимость может ухудшаться дымом, пылью или мглою.
Атмосферные явления - указаны явления, наблюдавшиеся в указанный момент времени.
Облачность - указаны через наклонную черту верхняя и нижняя облачность в баллах и высота нижней границы облаков в метрах. Внимание: облачность, как и прочие метеорологические величины в США измеряются автоматическими метеостанциями. Указанные значения в баллах носят условный характер и показывают процент времени, в течение которого, в среднем, лазерный луч высотомера отражался от облаков обратно.
T - Температура воздуха - температура, измеренная на высоте 2 м над землей.
Td - Температура точки росы - температура, при понижении до которой содержащийся в воздухе водяной пар достигнет насыщения.
f - Относительная влажность воздуха - влажноcть воздуха, измеренная на высоте 2 м над землей.
Te - Эффективная температура - температура, которую ощущает одетый по сезону человек в тени. Характеристика душности погоды. При расчете учитывается влияние влажности воздуха и скорости ветра на теплоощущения человека.
Tes - Эффективная температура на солнце - температура, которую ощущает человек, с поправкой на солнечный нагрев. Характеристика знойности погоды. Зависит от высоты солнца над горизонтом, облачности и скорости ветра. Ночью, в пасмурную погоду, а также при ветре 12 м/с и более поправка равна нулю.
P - Атмосферное давление - приведенное к уровню моря атмосферное давление.
Po - Атмосферное давление - измеренное на уровне метеостанции атмосферное давление.
Tmin - Минимальная температура - минимум температуры воздуха на высоте 2 м над землей.
Tmax - Максимальная температура - максимум температуры воздуха на высоте 2 м над землей.
R - Количество осадков - Количество выпавших осадков за 3 или 6 часов, мм.
SD - Снежный покров - Высота снежного покрова, см.